Theta_e
301 299 298 297 296 295 296 296 296 296 295 294 294 293 293 293 293 292 293 293 292 291 291 290 290 289 289 290 290 290 289 289 289 289 289 289 289 288 288 288 288 288 287 286 286 287 285 285 285 284 284 284 284 283 283 282 283 283 284 285 282 282 282 282 283 283 282 281 282 282 283 284 285 286 284 284 285 285 284 284 285 286 286 287 287
299 298 296 293 294 294 294 295 295 294 294 294 293 293 293 292 292 292 292 292 292 292 292 291 292 292 291 291 291 290 289 289 288 288 289 289 289 288 288 288 287 287 287 286 286 286 285 284 284 284 284 284 284 284 283 286 284 283 282 281 282 281 281 282 284 282 279 279 279 279 280 282 284 284 283 283 285 285 285 284 284 285 285 285 286
299 299 297 294 293 293 293 294 295 296 295 294 294 293 292 292 292 292 292 292 292 293 292 292 292 292 292 290 291 289 289 290 289 288 289 288 288 288 288 287 287 287 287 287 286 285 285 284 284 284 284 285 284 283 283 283 282 282 282 281 280 281 282 283 282 282 279 280 279 279 276 279 282 280 281 284 285 284 284 284 285 285 285 285 285
297 298 298 292 291 292 292 293 294 295 294 293 293 292 292 292 292 292 292 292 292 293 293 292 292 291 289 289 289 288 287 288 287 287 287 287 287 288 288 288 287 287 287 286 286 285 285 284 284 283 284 284 283 283 282 282 282 281 281 282 281 280 279 280 283 281 280 279 276 277 277 277 275 276 279 283 283 283 283 284 284 285 285 284 286
298 298 297 291 290 291 292 293 293 294 294 293 293 292 292 292 292 292 292 292 292 293 292 291 290 288 287 287 287 286 286 285 285 284 286 287 288 286 287 287 287 287 286 286 286 285 284 284 284 284 283 283 283 282 282 282 282 282 282 282 280 280 279 279 280 282 281 282 279 277 276 275 275 276 279 279 280 282 282 283 285 284 284 285 284
298 298 297 293 292 291 291 291 292 293 294 294 293 293 293 292 292 292 291 292 292 292 292 291 290 288 287 286 285 285 285 285 285 286 285 286 287 288 287 287 287 286 286 286 285 285 284 284 283 283 283 283 283 282 282 281 281 281 281 281 280 280 279 279 278 281 282 283 281 280 279 276 276 278 277 275 280 282 282 282 282 283 283 283 284
296 295 295 292 291 291 291 291 292 293 294 294 293 292 292 292 291 292 291 291 292 291 291 291 289 289 289 288 288 287 287 287 288 288 287 287 288 287 287 287 287 286 285 285 285 285 284 283 283 283 283 283 283 282 281 281 281 281 282 281 281 283 281 278 279 278 278 279 281 281 281 281 280 278 275 276 276 278 279 281 281 282 282 283 283
296 294 293 292 292 292 292 292 292 293 293 292 292 292 291 291 291 291 291 291 291 291 290 291 290 289 288 288 289 288 288 288 287 287 287 287 287 287 286 286 286 286 285 285 285 284 284 283 283 282 282 282 283 281 281 281 281 282 282 281 282 282 281 279 278 278 277 277 281 279 280 280 279 279 278 277 276 275 277 281 281 280 282 282 282
294 294 293 291 291 291 292 291 291 290 290 291 291 291 291 291 291 291 290 291 290 291 290 290 290 289 289 289 288 289 288 287 286 287 287 287 286 286 285 285 285 285 285 284 284 284 284 283 282 282 282 281 283 282 281 281 281 281 280 280 280 280 280 280 278 277 278 277 277 277 277 277 277 278 278 278 276 274 275 276 278 281 282 281 281
292 292 292 291 291 291 290 289 289 290 290 291 289 290 290 290 290 290 290 290 290 290 290 290 290 290 288 288 288 287 287 285 285 285 285 285 285 285 285 285 285 284 284 284 283 283 283 283 282 282 281 281 283 281 281 280 280 280 280 280 280 280 280 280 279 278 279 278 278 277 276 276 276 276 276 276 276 276 275 275 277 277 276 279 282
290 289 288 289 288 288 287 288 288 287 287 289 289 289 289 290 289 289 289 290 290 290 290 289 289 289 289 288 288 287 286 285 284 284 284 284 285 285 284 284 284 284 283 283 283 283 282 283 282 281 281 282 282 280 281 280 280 280 280 280 280 279 279 280 282 280 279 279 278 277 277 277 277 276 276 276 276 275 275 276 276 277 277 277 280
289 288 287 286 286 286 286 287 287 286 286 287 288 289 289 289 289 289 289 289 289 289 289 289 289 289 289 289 288 288 286 286 285 284 284 284 284 284 284 283 283 284 283 282 282 282 282 282 282 281 281 281 281 280 280 280 280 280 279 279 279 279 279 280 279 278 278 277 277 277 277 278 277 277 277 277 276 275 275 275 275 277 277 278 280
289 287 286 286 287 286 286 286 286 286 287 287 288 288 288 288 289 288 288 288 289 289 289 289 289 289 289 288 288 288 287 286 285 285 285 284 284 284 283 283 283 283 282 282 282 282 282 281 281 280 280 281 280 280 280 280 280 279 279 279 278 279 279 279 278 278 278 277 277 277 277 277 277 277 277 276 276 276 276 275 276 277 275 276 278
288 288 287 287 288 287 287 287 287 286 286 287 287 288 288 288 288 288 288 288 288 288 289 288 289 289 289 288 288 287 287 286 286 285 285 285 285 284 284 284 283 283 283 283 283 282 282 282 281 281 280 280 280 280 279 279 279 279 279 278 278 278 278 278 277 277 277 277 277 276 276 276 276 277 277 277 276 276 276 275 275 276 276 276 277
286 287 287 287 288 288 287 287 286 286 287 286 287 288 287 288 288 288 288 288 288 288 288 288 288 288 288 288 288 287 287 286 286 286 285 285 285 285 285 284 284 284 283 284 283 282 282 281 281 280 280 280 280 279 280 279 279 279 279 278 278 278 278 278 277 277 277 276 276 276 277 276 276 277 277 277 277 276 276 276 275 273 274 275 275
285 285 286 285 286 286 286 286 286 285 286 286 286 287 288 288 288 288 289 288 288 287 288 288 288 288 288 287 288 287 287 287 286 286 286 285 285 285 284 284 284 284 284 283 283 282 282 281 281 280 280 280 279 279 279 279 279 278 278 278 278 279 278 277 277 277 277 277 276 276 276 276 277 277 277 277 277 277 277 277 276 275 273 271 274
285 285 285 284 283 284 285 285 285 285 285 286 287 288 288 288 288 288 288 288 288 288 288 288 288 287 287 288 287 287 286 286 286 285 285 285 285 285 284 284 284 284 283 283 282 282 282 281 280 280 279 279 279 279 279 279 278 279 278 278 278 278 278 277 277 277 277 276 276 276 276 276 276 277 277 277 277 277 277 277 276 276 275 273 272
283 283 282 283 284 285 284 284 285 286 286 286 287 288 288 288 287 287 287 287 287 288 287 287 287 287 287 287 287 287 286 286 286 285 285 284 284 284 284 283 283 283 283 283 282 281 281 281 280 279 279 279 279 279 279 278 278 278 278 278 278 278 277 277 277 277 276 276 277 276 276 276 277 276 276 277 278 278 278 278 278 277 276 274 274
283 283 282 283 284 284 284 284 285 285 285 285 286 286 286 285 286 287 287 287 287 287 286 286 286 287 287 287 286 286 286 285 285 285 284 284 283 283 283 283 282 282 282 281 281 281 280 280 280 279 279 279 279 278 278 278 278 278 277 277 277 277 277 276 277 277 276 276 276 275 276 275 276 276 277 278 278 278 278 278 278 278 277 277 276
285 284 285 285 284 284 284 284 284 285 285 284 284 284 285 286 286 286 286 285 285 286 286 286 286 286 286 286 286 286 286 285 285 284 283 283 283 283 283 282 282 282 281 281 281 281 280 280 279 279 279 279 278 278 278 278 278 278 277 277 277 277 277 276 276 276 277 276 276 275 275 275 275 276 276 276 275 276 276 275 275 275 276 276 276
285 285 285 285 285 285 286 285 284 283 283 284 284 285 286 285 286 286 286 286 285 286 286 286 286 286 286 285 285 285 285 285 284 283 283 283 283 283 282 282 281 281 281 281 281 280 280 280 279 279 278 278 278 278 278 278 277 277 277 277 276 276 276 275 275 275 276 275 275 274 274 274 275 274 274 274 274 274 274 274 274 274 274 274 274
285 286 286 286 286 287 286 285 284 283 283 284 285 285 285 286 287 287 286 286 286 286 286 286 286 286 285 286 285 285 284 284 283 283 283 283 282 282 282 281 281 281 281 281 280 280 280 279 279 278 278 278 278 278 278 278 277 277 276 276 276 275 275 274 274 273 274 274 274 273 273 273 273 273 273 273 273 272 272 272 272 272 272 272 273
288 286 286 286 287 288 287 286 286 286 286 285 284 285 286 286 286 286 286 286 287 287 287 286 286 285 285 285 285 284 283 283 283 283 282 282 282 282 281 281 281 280 281 281 280 280 280 279 279 278 278 278 278 278 278 277 277 276 276 275 275 275 274 273 273 273 272 273 272 272 271 271 272 271 272 272 272 271 271 271 270 271 270 271 271
288 288 288 288 286 286 286 286 287 287 287 287 286 286 286 286 287 287 287 287 287 287 286 286 285 285 285 285 284 284 283 282 282 283 282 282 282 281 281 281 281 280 280 280 280 280 279 279 278 278 278 277 277 277 277 277 277 276 275 275 274 274 274 273 273 272 272 272 272 271 271 270 270 269 269 270 271 270 270 270 270 270 270 270 270
294 293 290 288 288 287 288 288 289 289 288 288 288 287 286 286 286 287 287 288 287 287 286 286 285 285 285 284 284 283 282 282 282 283 282 282 281 281 281 281 280 280 280 279 279 279 279 278 278 278 277 277 277 276 276 276 276 275 275 275 274 274 273 273 273 273 274 272 272 271 271 271 270 269 269 268 269 269 270 269 269 270 270 270 270
292 292 291 290 290 290 289 289 289 289 289 290 289 287 286 286 286 287 287 287 287 287 286 285 285 284 284 283 283 283 283 282 282 282 282 282 281 281 280 280 280 280 279 279 279 278 278 278 278 277 277 277 276 276 276 275 275 275 274 274 274 273 273 272 272 273 273 273 272 272 271 271 270 269 269 269 269 269 269 269 269 269 269 269 269
293 293 292 289 288 290 291 291 290 291 290 290 289 288 287 286 286 286 287 287 287 286 286 285 285 284 284 284 283 283 283 283 283 283 282 282 281 280 280 280 280 280 279 278 278 278 278 278 277 277 277 276 276 275 275 275 274 274 274 274 273 273 273 273 273 272 273 272 272 271 271 270 270 270 270 269 269 269 268 268 268 268 269 269 269
290 289 290 291 291 291 291 292 292 292 291 289 288 288 288 287 287 287 287 287 287 286 285 285 285 284 284 284 284 284 283 283 283 282 281 281 280 280 280 280 279 279 279 278 278 278 277 277 277 276 276 276 275 275 274 274 274 274 274 274 273 273 272 272 271 271 271 271 271 271 271 271 271 271 270 269 269 268 269 268 269 269 269 269 269
292 290 291 291 291 293 293 292 292 291 290 289 289 288 288 287 287 287 286 286 286 286 285 285 285 284 284 285 284 284 283 282 282 281 280 280 280 279 279 279 279 279 279 278 278 277 276 276 275 275 275 275 275 275 275 274 274 274 273 272 272 272 271 271 271 271 271 271 271 272 272 272 272 273 274 273 273 272 270 269 270 270 270 270 270
295 295 294 293 293 293 294 294 294 293 292 291 290 288 288 287 287 287 286 286 286 285 285 285 284 285 285 284 284 282 282 281 280 280 280 280 279 279 279 278 278 278 277 277 277 276 276 275 275 274 274 274 275 275 276 278 277 273 272 272 271 271 271 271 270 270 271 271 271 272 272 274 274 275 275 275 276 276 276 273 271 271 271 270 269
292 293 294 294 293 293 293 293 294 294 293 293 292 291 290 288 287 287 286 286 285 285 285 285 285 285 285 283 282 281 281 280 280 280 280 279 279 278 278 277 277 277 276 276 276 275 275 275 274 274 274 274 274 274 279 281 280 279 273 272 271 270 271 271 270 270 270 271 271 272 272 274 275 275 275 276 277 277 277 278 278 277 275 272 270
290 290 291 291 292 293 293 293 294 295 295 294 292 291 289 287 287 287 287 286 285 285 285 285 285 285 284 282 282 281 279 279 279 279 278 278 278 277 277 277 276 275 275 275 274 274 274 274 274 273 273 273 273 277 281 281 281 280 276 272 271 271 271 270 271 271 271 272 272 272 273 273 273 273 273 273 275 276 276 277 277 277 277 278 278
289 289 289 290 290 291 291 292 294 295 295 296 295 292 289 288 288 288 286 284 284 285 285 285 285 284 283 281 280 280 279 278 278 278 277 277 276 276 276 275 275 275 274 273 274 274 273 274 273 273 273 273 272 279 282 282 281 280 278 274 271 271 271 271 271 271 272 272 273 273 273 273 273 275 274 273 272 272 275 276 276 277 277 278 278
288 289 289 289 290 290 290 291 291 293 294 295 295 291 290 290 287 284 284 284 284 284 284 284 284 283 282 280 280 279 279 278 277 277 276 276 275 276 276 275 275 274 274 274 274 273 274 273 273 273 273 272 271 278 282 282 282 281 279 275 271 271 271 272 272 272 273 273 273 273 273 273 272 272 272 271 271 271 272 272 273 273 273 275 277
287 288 288 288 289 289 289 289 290 290 291 292 292 290 289 287 285 284 284 284 283 283 283 283 282 282 281 280 280 279 278 277 277 276 276 275 275 275 275 275 275 274 274 274 273 273 273 273 272 272 272 271 271 278 281 282 282 282 280 275 271 272 272 273 273 274 274 274 274 273 272 271 270 270 271 272 272 272 272 272 272 272 273 273 274
286 287 288 288 288 288 288 288 288 289 289 289 289 289 286 287 283 284 282 283 282 282 282 282 281 281 280 280 279 278 278 277 276 276 275 275 275 275 275 274 274 274 274 274 273 273 272 272 272 271 271 270 271 279 282 282 282 282 282 275 273 273 273 273 274 274 274 274 273 272 271 270 270 271 274 276 276 275 274 273 273 274 274 275 275
287 288 288 289 289 289 288 288 288 287 286 284 284 285 285 282 281 280 280 280 281 281 281 281 281 280 280 280 279 278 277 276 276 275 275 275 275 275 274 274 273 273 273 273 272 272 272 271 271 270 270 269 270 278 282 282 282 282 281 275 274 274 274 273 273 273 273 273 273 272 272 271 271 272 275 277 277 277 275 274 273 273 273 274 274
287 288 288 289 290 290 290 289 288 287 285 282 282 282 282 281 279 278 278 278 279 280 280 280 280 280 279 278 278 278 277 276 275 274 274 275 275 275 274 273 273 272 272 272 271 270 270 270 270 269 270 269 269 277 282 281 281 282 279 274 274 273 272 272 272 273 273 273 273 275 274 272 272 273 276 277 277 276 274 274 273 272 272 273 274
287 287 287 288 289 289 289 289 289 288 285 280 280 282 282 281 279 278 277 277 279 279 279 279 279 277 277 277 277 276 276 275 274 274 274 274 274 273 273 273 273 272 272 271 270 269 268 269 269 269 272 270 269 276 281 281 281 282 278 274 273 272 272 272 272 272 272 272 272 274 276 276 275 275 277 277 278 276 274 274 274 273 272 272 273
287 288 288 288 288 288 288 288 288 288 284 280 280 281 280 279 278 277 277 278 278 278 278 276 276 276 275 276 276 276 275 274 273 273 273 273 272 271 270 271 271 271 270 269 268 269 268 267 268 268 270 269 269 272 277 281 280 281 279 274 273 272 271 271 272 271 271 272 272 273 275 277 277 276 276 276 277 277 275 275 274 273 271 270 272
287 287 288 288 288 288 287 287 288 287 284 281 280 282 282 279 278 279 280 279 278 276 276 275 275 274 274 274 275 275 274 273 273 273 273 271 271 270 270 269 269 269 268 268 268 268 267 267 267 268 268 267 269 270 275 280 280 281 280 276 273 272 272 271 270 271 271 271 272 273 272 274 275 275 276 276 276 277 277 275 274 272 271 272 274
287 287 287 287 287 287 287 287 288 287 284 281 280 282 283 279 277 279 280 276 275 275 274 274 274 274 273 273 273 273 273 272 272 271 271 270 270 269 269 269 269 268 268 267 267 267 266 266 266 267 267 267 270 273 273 278 279 280 280 278 273 272 272 271 270 270 271 272 272 272 270 272 274 274 275 276 277 277 277 274 273 275 275 276 274
286 286 287 286 286 286 286 287 287 287 285 283 280 280 281 278 278 280 275 273 273 273 274 274 273 273 272 272 272 272 272 271 271 271 271 269 269 268 268 268 268 268 268 267 266 266 266 266 266 267 268 268 269 271 274 275 279 279 280 279 277 275 276 272 271 271 272 272 272 270 270 273 274 274 275 276 276 276 275 273 274 275 275 275 273
286 286 286 286 285 286 286 286 287 286 286 283 280 280 281 279 281 276 274 274 273 274 274 273 273 272 271 271 271 271 271 271 271 271 270 269 268 268 268 268 268 267 267 266 266 266 266 266 265 266 267 267 269 269 273 276 276 279 280 280 278 277 277 274 273 272 272 271 270 270 271 273 274 275 275 274 274 274 272 273 273 274 273 272 266
283 284 285 285 285 284 285 285 286 287 286 284 281 280 280 281 281 276 276 273 274 274 274 273 272 272 271 271 270 270 270 270 270 270 269 268 268 268 267 268 268 268 267 267 266 267 266 266 266 266 266 267 268 269 271 274 277 278 279 280 279 278 278 277 273 272 272 271 272 273 274 274 273 272 272 272 271 270 271 272 272 272 270 264 262
282 282 282 283 284 284 284 284 284 286 286 285 282 280 280 283 279 276 276 275 274 273 273 272 271 271 271 270 270 270 269 270 270 270 270 269 268 268 268 267 267 268 267 267 267 267 267 267 266 266 266 266 268 268 270 272 275 277 277 278 279 279 278 277 274 272 273 274 274 273 272 271 270 269 268 266 266 266 270 270 269 269 265 262 261
278 279 280 279 280 279 279 279 279 281 284 285 285 282 281 281 280 277 277 275 274 274 273 272 271 271 270 270 270 269 269 269 269 270 270 269 269 269 268 268 268 268 267 267 267 267 267 267 266 266 266 266 267 268 269 271 272 273 274 275 276 276 277 276 272 272 271 268 270 269 269 270 268 269 268 268 268 267 265 264 263 263 262 260 261
277 276 277 276 275 275 275 275 276 278 279 281 283 284 284 282 280 277 275 274 274 274 274 273 271 270 269 269 270 269 268 268 269 269 269 268 268 269 269 268 268 268 268 267 267 267 267 267 266 267 267 266 267 267 268 269 270 271 272 273 273 272 272 270 269 268 266 267 266 267 265 262 262 261 261 260 260 261 261 261 261 260 261 261 265
273 273 274 272 273 273 273 273 273 274 275 278 281 283 284 282 281 276 274 274 274 273 273 272 271 270 269 269 269 268 268 268 268 269 269 269 269 269 269 269 270 270 270 269 268 268 268 269 268 268 267 266 266 266 268 272 270 273 271 271 270 270 269 268 270 270 264 263 262 259 257 258 257 257 257 257 257 256 257 258 258 257 257 260 260
271 271 271 271 271 271 271 271 271 272 274 276 278 278 279 281 279 276 274 274 274 273 272 271 270 270 269 268 268 268 268 268 268 268 268 268 271 272 271 270 269 272 274 275 274 269 270 269 269 269 269 267 267 268 273 275 275 275 276 275 274 274 273 271 273 273 266 259 258 257 256 255 256 255 254 255 256 256 256 256 257 262 261 258 259
268 268 268 268 268 269 268 268 269 271 273 273 273 273 274 275 278 277 275 274 274 273 272 271 270 269 269 268 268 267 267 267 268 268 268 267 267 269 273 274 273 273 274 275 275 275 275 274 271 269 271 272 272 274 275 276 276 276 276 276 276 275 275 274 274 266 260 257 256 256 256 255 255 255 255 256 257 257 257 257 257 258 257 259 261
Wind_Speed
21 13 11 11 11 11 11 10 11 10 9 11 12 14 15 16 15 16 14 14 13 12 11 11 11 8 6 11 12 10 10 8 8 8 8 8 8 8 8 7 7 7 7 7 8 7 7 6 6 5 5 5 5 4 4 3 3 3 3 1 2 3 2 2 2 2 4 6 2 4 6 6 7 4 4 3 2 4 3 4 5 4 3 3 3
15 13 11 6 7 9 9 10 9 11 12 14 16 19 17 15 17 15 13 14 15 15 14 13 14 15 16 15 12 11 10 11 11 9 9 8 9 8 8 6 7 8 8 7 8 8 8 7 7 7 6 6 4 3 3 3 3 3 3 2 1 2 1 2 4 3 5 3 7 9 5 7 4 2 2 3 6 4 3 2 3 3 3 3 2
19 19 13 8 8 8 9 10 12 17 17 18 19 15 13 15 14 14 15 15 15 15 14 14 11 9 10 8 11 7 5 5 5 6 6 8 8 8 8 7 8 7 8 8 9 8 8 8 8 7 6 6 6 5 4 4 3 3 3 4 3 2 2 2 3 4 1 2 2 2 4 9 7 5 2 5 9 4 2 3 3 3 4 3 2
19 21 20 6 8 9 9 10 15 14 11 11 10 15 14 14 15 15 15 15 14 14 14 12 10 6 4 4 4 5 5 4 4 5 5 6 8 8 8 9 9 9 9 8 8 8 8 8 7 7 7 6 6 7 6 5 3 3 3 2 4 4 1 1 2 3 2 3 6 0 2 2 2 4 6 10 3 3 3 5 3 3 4 3 2
19 17 16 6 7 10 13 12 8 10 12 15 16 16 14 19 18 17 16 16 14 14 13 10 10 8 7 7 5 6 5 4 4 5 8 8 7 9 12 10 9 9 9 8 8 9 7 7 8 7 7 7 6 6 6 6 5 4 4 3 3 6 4 2 1 3 3 1 1 1 4 3 1 3 7 8 1 6 2 2 3 4 5 5 5
19 19 16 7 10 7 7 9 12 13 14 16 17 18 15 14 14 14 12 12 13 13 14 12 12 13 12 11 10 8 8 10 14 17 14 14 16 9 7 9 10 9 8 8 7 7 8 8 7 8 8 7 7 6 5 5 4 4 4 3 3 2 6 5 2 1 2 1 1 1 1 2 5 5 4 8 3 9 3 2 6 5 4 8 7
15 13 13 8 7 8 9 12 15 15 17 12 10 11 12 13 14 15 14 13 12 13 14 12 12 12 15 16 15 16 15 13 9 5 9 8 5 9 10 8 9 9 8 7 7 7 7 7 7 7 7 7 6 6 6 6 5 4 3 3 4 5 5 4 4 2 1 2 1 1 2 1 0 3 3 5 13 2 1 6 10 5 6 8 8
13 11 10 9 9 12 15 16 14 17 9 8 10 10 14 16 16 15 12 12 12 13 14 14 15 14 14 13 12 13 15 13 10 8 6 7 8 9 8 9 8 8 8 7 7 7 7 7 7 7 7 6 7 7 7 5 5 3 3 3 3 4 5 7 5 4 3 1 1 3 2 1 2 0 1 1 3 12 20 9 4 3 9 8 7
9 11 11 9 9 11 11 10 7 5 9 13 14 14 12 11 13 12 13 13 12 15 15 15 14 15 15 14 13 12 11 7 6 6 8 8 9 7 8 8 8 7 7 8 7 6 6 7 7 7 7 7 7 7 6 6 7 6 5 5 4 4 5 5 6 5 5 3 1 1 3 3 3 0 1 2 2 4 11 10 19 16 9 2 1
6 9 7 6 7 7 5 4 7 9 6 6 5 7 9 10 13 14 14 12 13 15 15 16 15 13 13 14 16 12 9 5 7 8 8 8 10 9 8 8 8 8 7 6 6 6 6 6 6 7 7 7 7 7 7 7 6 6 6 6 5 5 4 6 6 5 5 4 3 3 1 2 3 3 4 3 1 4 7 9 11 15 19 18 15
5 5 4 3 2 4 6 7 6 5 6 7 8 9 10 12 14 15 15 13 13 15 16 17 15 14 15 16 16 14 11 9 8 9 8 8 11 10 9 8 7 8 7 7 8 7 6 6 6 6 5 6 7 7 8 8 7 7 6 5 5 6 6 6 5 4 5 5 4 4 4 4 3 2 2 1 1 3 5 8 7 7 10 16 17
4 3 3 4 4 4 5 7 8 7 6 9 9 9 10 11 12 14 13 13 13 15 16 16 15 16 15 15 15 14 13 12 13 13 12 12 11 10 8 6 7 7 7 8 8 8 8 7 6 5 6 6 7 6 6 7 6 6 6 6 5 4 5 7 6 6 5 4 3 3 4 4 4 4 3 2 2 4 4 9 9 8 8 8 8
4 3 4 5 8 9 9 7 7 10 12 11 11 11 11 11 14 16 15 14 14 14 16 16 15 15 15 14 13 11 12 13 13 12 11 12 11 10 10 11 8 9 10 10 10 12 10 9 9 9 8 7 7 7 6 6 7 6 6 5 5 6 7 7 6 5 6 5 4 3 3 2 2 3 2 2 2 2 4 8 8 4 10 12 10
5 5 6 8 9 9 9 10 11 9 9 11 11 12 11 12 14 16 17 15 14 14 15 15 17 16 13 12 11 11 12 12 12 12 11 11 11 12 13 13 13 15 13 14 12 12 10 10 9 8 6 6 7 7 7 7 7 7 6 7 6 5 6 6 6 5 4 3 3 3 2 2 1 0 0 1 3 4 6 7 10 8 8 12 7
3 5 8 8 8 8 9 10 9 9 10 11 10 11 11 12 13 15 14 14 15 16 14 17 16 14 13 12 11 10 12 11 12 11 11 12 11 12 12 11 13 12 13 11 11 12 11 10 10 10 9 9 8 8 7 7 6 6 6 5 4 4 6 7 6 6 6 5 3 3 2 1 1 0 0 2 2 3 4 6 7 14 12 7 9
4 5 6 5 5 5 6 7 7 7 9 9 11 12 13 14 15 17 18 17 16 15 16 17 16 13 12 13 14 13 11 10 10 10 11 12 12 13 13 13 12 10 10 10 11 12 12 12 11 11 10 10 9 9 9 8 7 7 6 6 6 4 6 7 6 6 5 5 3 3 2 1 0 0 0 1 2 3 4 4 5 6 9 14 8
5 5 5 5 5 6 7 6 6 6 8 12 14 15 16 14 14 15 14 12 16 17 16 13 12 12 15 15 13 13 14 15 15 14 13 11 11 12 11 12 10 10 10 10 11 11 11 11 12 11 11 10 10 9 9 8 8 8 7 7 7 5 6 7 6 6 4 4 3 3 2 1 0 0 0 1 2 3 4 4 3 5 6 8 12
4 4 4 5 6 7 6 6 8 11 12 11 12 10 10 11 13 15 13 14 15 15 14 14 15 15 14 15 16 16 16 15 12 13 11 10 11 10 9 10 12 10 9 9 10 11 11 11 11 11 11 11 11 10 9 9 9 8 7 7 6 6 6 5 5 6 5 4 4 3 2 1 1 0 1 1 1 3 4 5 5 6 5 7 8
4 4 4 5 7 7 7 8 7 7 7 8 7 6 6 7 8 10 16 18 14 10 9 9 11 12 13 16 17 15 13 13 11 10 10 12 13 12 12 11 8 9 10 9 10 10 10 10 10 10 10 11 10 10 10 9 9 8 7 7 7 7 7 6 5 6 5 5 4 3 3 2 1 1 1 0 1 1 2 2 4 4 5 5 7
6 5 6 8 8 8 9 10 11 12 10 7 7 6 10 11 9 11 9 7 9 14 15 15 15 13 13 11 12 13 14 13 12 11 11 13 12 11 11 10 12 9 10 10 11 12 12 11 10 10 10 10 11 10 11 10 9 8 8 8 7 7 7 7 6 5 5 5 5 4 3 3 2 3 2 1 1 2 1 3 3 4 5 5 6
6 7 8 9 9 9 9 8 6 3 5 6 9 14 13 8 11 13 15 15 15 15 14 15 14 15 15 15 16 14 14 12 10 11 12 12 10 11 11 10 8 11 11 12 12 12 12 12 11 11 11 11 11 11 10 10 9 9 8 8 7 7 8 6 7 6 5 5 5 5 4 3 4 3 2 1 1 1 1 3 2 3 5 5 5
8 8 9 8 8 8 6 4 4 5 7 10 12 8 9 13 16 14 12 12 15 14 15 16 15 15 17 17 15 12 11 10 12 12 12 11 11 11 10 9 12 11 12 13 13 12 12 13 12 12 11 11 11 11 10 10 10 10 9 7 8 8 7 7 7 6 6 5 5 5 4 5 5 4 4 3 2 2 2 2 4 3 4 5 4
7 8 8 9 8 6 3 4 6 9 9 8 7 10 13 15 13 12 14 17 17 18 17 14 14 14 16 16 14 12 12 13 14 13 14 13 12 10 10 12 11 10 10 12 13 12 13 13 12 12 11 11 11 11 10 10 10 10 10 8 8 8 9 9 8 7 7 6 6 6 6 6 4 4 4 3 3 3 3 3 4 4 4 4 4
8 7 5 5 4 3 2 4 7 8 10 12 12 12 12 11 12 13 16 19 16 15 14 13 14 16 16 13 14 13 13 14 15 15 16 14 12 11 11 12 12 10 12 10 11 12 12 13 13 12 12 11 11 10 10 9 10 10 10 9 8 8 8 8 9 8 8 8 8 7 6 6 5 5 4 4 4 4 4 4 5 5 5 4 4
10 10 7 3 3 5 7 7 9 10 10 10 10 12 12 14 12 14 17 18 16 14 12 14 14 16 13 14 14 13 14 15 17 14 16 14 13 12 11 13 12 12 12 11 10 10 12 13 13 14 13 12 12 11 11 10 8 8 9 9 9 8 8 8 8 8 8 8 7 7 6 6 6 6 5 5 4 5 5 5 5 5 5 4 4
11 11 8 7 6 5 4 7 8 8 9 10 11 11 12 12 15 16 16 15 15 12 13 13 12 13 13 15 15 14 16 18 18 15 16 15 14 13 13 11 13 13 12 12 13 12 13 14 12 13 12 12 12 12 11 11 10 9 8 8 8 8 8 8 8 8 7 7 6 6 6 7 6 7 6 6 7 7 6 7 7 7 6 6 6
12 9 8 6 6 8 7 7 8 8 8 9 10 11 11 12 14 14 15 15 13 12 13 14 14 15 15 16 15 17 18 17 16 16 14 12 13 13 13 13 12 13 14 13 12 13 11 13 13 12 13 13 12 11 11 10 10 10 10 10 9 8 7 6 6 6 5 5 5 6 6 7 8 8 7 7 6 6 6 7 7 6 6 6 6
7 7 8 9 10 9 8 10 10 12 11 10 10 12 13 14 15 14 13 12 10 12 14 15 15 16 16 17 17 18 17 16 14 12 12 13 12 12 13 12 12 14 14 15 15 15 12 11 12 12 12 11 11 10 10 10 11 11 10 10 9 9 8 7 6 6 6 5 5 6 7 7 8 7 6 6 7 7 6 7 6 6 6 7 8
8 7 9 9 10 10 11 11 12 12 12 14 13 13 13 12 13 13 11 14 13 12 14 14 14 15 17 17 16 13 11 11 11 12 12 13 14 13 12 12 13 13 12 13 13 14 13 12 10 11 11 10 11 12 10 11 10 10 10 10 9 9 9 8 7 7 6 6 6 7 7 7 9 11 13 12 10 10 7 7 7 8 8 8 9
13 12 10 8 10 12 12 13 13 13 14 14 13 12 12 14 15 14 12 14 11 14 14 14 15 18 17 15 12 10 11 11 11 13 14 13 13 13 13 13 13 13 12 12 12 12 13 14 14 12 11 11 11 9 12 20 16 12 11 9 9 9 8 8 8 7 7 8 8 7 7 12 13 14 14 14 15 15 15 11 8 8 8 8 8
21 20 18 15 12 12 13 13 14 14 14 14 14 14 13 13 13 12 13 13 11 14 14 15 18 18 15 11 11 12 12 14 14 13 11 12 13 12 13 13 12 12 13 12 12 13 12 11 13 13 14 12 10 9 21 22 22 20 12 11 11 10 9 9 8 8 8 8 8 8 8 10 12 13 12 15 14 15 14 15 16 15 12 9 8
18 18 19 20 21 18 15 14 15 16 16 12 12 12 11 12 13 12 14 9 9 12 14 16 17 12 10 12 12 12 12 13 11 13 13 12 11 11 12 13 12 13 12 11 13 13 12 12 11 11 12 11 11 16 23 23 22 22 16 9 7 9 9 8 8 8 7 7 8 8 8 8 9 8 6 7 10 13 13 14 15 16 17 19 19
16 18 18 18 18 17 19 19 16 16 16 16 16 13 11 12 12 15 6 7 12 13 14 14 12 11 12 11 11 12 13 12 13 13 12 12 13 13 13 13 14 12 11 13 13 12 12 12 12 14 13 12 10 18 23 24 23 21 20 14 9 8 8 8 8 8 8 7 7 7 8 7 6 13 9 7 7 7 11 15 15 17 19 19 20
14 15 16 17 17 17 18 18 18 18 18 18 17 12 14 12 9 4 8 12 11 12 12 12 10 10 10 11 11 12 13 12 11 11 12 13 13 15 13 11 11 11 13 12 12 14 13 13 13 13 12 11 11 17 23 23 22 22 21 15 8 9 8 7 8 7 7 7 8 8 8 7 5 5 4 5 5 6 7 9 10 11 12 16 20
16 17 17 17 16 17 19 20 20 20 18 16 15 10 9 9 5 6 8 9 10 11 11 11 11 10 9 11 12 12 12 12 12 12 13 13 14 12 13 12 13 14 15 15 15 14 13 13 12 11 10 10 9 19 23 23 23 22 21 15 9 8 7 7 7 7 8 8 8 7 5 4 4 4 5 7 7 8 8 9 10 11 12 12 12
17 17 18 17 16 16 16 17 16 17 18 15 13 12 8 10 5 7 6 8 8 9 9 7 9 10 12 12 12 12 12 12 13 13 14 14 14 14 15 12 11 10 9 9 9 10 13 13 12 11 11 10 9 20 23 23 24 23 23 11 9 9 9 8 8 9 9 8 7 5 5 5 5 6 9 14 11 8 8 9 9 8 7 8 10
16 15 16 16 15 15 16 15 16 16 16 16 15 12 7 3 1 2 1 3 5 8 8 9 10 10 11 11 12 13 13 13 14 15 15 15 15 14 12 10 12 11 12 11 12 11 10 12 12 11 11 9 9 18 24 24 23 24 18 9 10 8 8 9 9 8 8 7 6 6 6 6 7 7 11 13 12 12 7 7 8 8 9 11 12
16 16 16 17 16 16 17 15 16 17 14 12 13 11 7 3 1 1 3 4 5 8 6 7 9 9 10 10 11 12 13 14 14 16 16 13 11 9 11 11 14 13 12 11 10 10 9 10 12 12 11 10 9 16 24 23 23 24 15 10 9 8 8 9 7 7 6 6 8 14 11 8 8 8 11 11 12 10 7 6 8 12 14 10 8
16 15 16 17 17 16 15 15 16 17 16 11 10 7 5 4 2 1 2 5 7 6 6 7 5 4 5 6 7 8 10 11 13 12 11 12 13 12 10 9 9 10 10 9 9 10 9 9 9 10 13 11 9 14 23 22 24 23 15 9 9 9 8 8 8 7 7 6 7 10 13 11 9 8 11 11 12 10 6 8 10 9 9 10 9
20 18 16 15 14 16 19 18 17 18 14 11 8 5 2 1 2 3 5 7 5 3 3 4 5 7 7 8 8 9 9 10 10 9 9 10 9 10 11 11 10 10 10 10 10 10 12 10 9 10 10 10 11 10 15 23 22 23 20 11 9 10 10 10 9 8 7 7 7 7 8 11 10 10 10 11 11 12 9 7 7 8 7 8 7
18 18 19 17 16 14 14 15 14 14 14 11 8 9 9 3 1 2 7 4 2 3 4 4 5 6 7 8 7 9 11 9 9 10 10 9 9 11 11 11 11 9 9 10 11 10 10 9 9 10 9 10 10 11 14 23 22 24 23 18 9 10 9 9 8 8 7 6 6 6 4 7 10 10 10 11 11 12 13 9 6 6 8 11 14
13 15 15 16 17 17 18 18 15 14 13 11 9 11 12 9 5 7 6 1 1 2 4 5 6 6 6 6 6 5 6 8 9 10 11 10 8 9 11 11 10 11 12 12 11 10 10 10 9 9 9 10 11 15 11 20 23 24 23 22 11 10 10 9 8 8 7 7 7 5 5 5 9 10 10 11 12 13 14 8 7 13 18 19 13
20 20 18 15 16 18 19 17 16 15 13 12 9 11 11 8 9 8 4 1 2 2 3 4 5 7 7 7 7 8 8 7 8 9 11 11 9 10 10 10 11 11 12 12 12 11 11 11 10 9 8 9 10 11 16 12 21 23 23 21 20 14 19 10 9 8 8 7 5 6 4 8 9 8 10 11 11 12 10 8 13 15 15 17 12
15 15 16 17 17 17 17 18 16 14 13 12 9 11 10 8 11 4 1 2 3 3 4 4 4 5 6 7 8 9 9 9 10 10 10 11 11 10 10 10 11 12 11 12 10 11 11 11 8 9 7 6 8 8 15 19 17 24 23 23 22 22 21 11 8 6 6 6 5 5 5 9 9 9 8 8 9 8 7 11 13 13 14 12 6
17 17 16 15 16 19 19 19 17 15 12 11 9 9 12 11 7 1 1 2 3 4 4 5 5 5 6 6 6 7 9 9 10 12 12 11 11 12 11 10 11 11 12 12 12 12 13 12 12 13 11 10 8 10 10 16 22 21 23 23 22 22 20 19 11 7 7 6 7 10 9 5 3 2 4 5 5 7 10 11 11 11 9 4 6
14 15 16 16 17 17 17 19 19 17 15 11 9 7 11 13 4 2 2 2 3 4 4 5 5 6 7 7 8 7 7 9 11 10 11 11 13 13 12 11 12 12 12 13 13 13 12 12 12 11 11 11 11 10 10 12 14 17 17 22 22 21 19 17 13 10 13 11 9 7 7 6 5 2 1 0 1 4 8 9 9 8 4 5 5
15 15 15 16 16 17 19 20 22 20 16 14 13 9 8 9 9 5 3 4 5 5 5 5 7 7 7 8 10 9 8 8 9 9 9 10 10 11 11 12 12 12 12 12 12 13 13 12 13 11 10 10 10 10 10 11 10 11 11 13 15 13 17 16 9 7 8 7 7 7 5 6 4 1 1 3 4 5 5 5 4 5 5 5 6
14 15 15 15 16 17 19 20 20 20 17 17 17 15 12 9 7 5 4 4 6 7 8 8 9 8 8 9 10 10 12 11 11 11 11 11 11 13 14 16 17 17 16 15 14 14 15 15 14 13 12 11 11 11 12 12 12 11 11 10 10 10 9 8 8 7 7 6 6 7 7 4 4 4 2 2 3 3 4 4 5 5 5 5 8
16 14 14 15 16 17 17 19 21 19 19 18 18 15 12 9 8 4 4 6 8 8 8 8 8 8 9 9 9 10 10 12 11 11 10 11 13 14 15 13 13 12 16 18 18 16 15 14 14 15 15 14 13 14 14 13 15 18 15 13 12 11 9 8 11 13 9 7 6 6 4 4 3 1 1 2 3 3 5 5 5 5 5 5 5
15 13 14 16 15 15 17 19 18 17 16 18 16 16 15 14 8 5 5 8 8 7 8 9 9 9 9 9 9 9 9 10 11 10 10 8 7 11 9 9 9 13 17 14 13 13 13 12 12 12 14 17 17 14 20 27 25 24 23 20 16 17 15 12 15 19 11 7 5 6 5 4 2 2 2 3 4 3 4 5 5 5 4 5 7
13 15 16 15 16 17 18 21 20 17 15 15 17 17 17 16 14 9 7 9 9 8 9 9 9 10 11 11 10 10 10 10 10 10 9 9 8 8 14 15 11 12 15 17 17 14 16 18 14 13 9 4 8 20 26 25 25 25 24 23 22 21 21 19 20 13 7 7 6 7 5 3 2 3 3 4 3 4 5 4 5 5 4 6 7
Wind_Direction
255 251 246 224 208 202 200 194 200 199 194 185 185 188 186 182 172 180 174 168 166 165 168 163 165 165 177 189 194 189 189 181 182 182 181 184 180 179 180 179 173 168 167 162 163 162 163 162 158 162 154 152 154 166 153 152 150 147 147 143 116 79 26 13 32 35 8 322 260 270 302 279 280 291 275 246 253 285 280 286 281 300 292 297 290
273 265 243 225 211 201 192 191 182 184 200 189 189 193 187 177 181 175 168 174 176 175 173 176 180 182 180 190 187 182 180 184 189 187 186 181 180 178 179 177 176 175 169 170 167 168 165 169 168 167 161 159 160 146 145 148 143 145 147 67 18 111 91 357 359 39 28 23 327 334 326 315 295 329 252 265 330 332 303 269 293 303 308 297 290
266 266 257 211 209 203 188 192 195 198 196 191 197 182 177 180 183 174 177 176 180 176 173 182 183 182 183 177 177 174 193 192 181 174 168 178 184 180 177 178 176 179 178 176 172 176 174 167 171 163 162 158 153 156 154 164 169 170 188 156 111 50 93 39 34 65 124 273 241 323 340 0 336 355 337 322 320 301 267 299 321 324 315 307 300
255 258 263 218 202 197 193 195 201 199 191 193 183 185 183 186 182 178 180 180 177 180 181 179 169 149 119 120 127 126 163 155 132 134 162 168 187 184 186 182 185 184 182 179 178 176 172 172 161 163 167 166 162 161 166 175 173 176 190 204 142 95 83 56 54 66 101 17 11 64 274 113 328 322 320 299 239 261 309 327 337 318 305 304 323
257 260 261 223 200 202 200 205 191 194 195 192 188 185 187 188 183 179 177 180 179 176 172 154 131 116 104 87 88 85 74 129 147 184 186 187 180 192 195 185 183 186 185 185 178 177 173 166 167 166 163 166 160 162 169 175 172 178 178 184 174 142 135 126 23 66 53 52 150 27 340 3 219 260 320 282 317 321 322 313 333 333 323 322 342
258 258 259 231 216 205 205 198 193 200 199 199 191 190 183 179 176 176 175 177 175 172 165 156 161 157 151 152 163 177 182 179 196 196 186 190 198 182 170 186 185 185 186 184 182 172 174 173 167 164 165 166 168 166 155 144 168 178 191 182 178 147 134 125 121 26 98 122 156 131 185 216 313 306 11 313 293 262 256 313 343 335 334 337 342
257 258 262 240 219 200 205 200 201 199 206 191 181 183 179 175 176 175 174 175 173 170 166 162 165 172 176 179 182 187 194 210 208 190 190 191 163 179 186 183 187 183 185 184 182 178 173 170 170 170 165 163 161 151 159 167 169 177 177 188 199 148 119 124 149 170 7 47 90 130 79 90 125 359 330 319 324 341 176 348 336 348 358 346 335
255 252 248 234 214 200 204 207 196 204 185 159 177 175 178 177 174 176 173 173 173 169 171 174 172 177 182 189 191 196 201 203 190 191 176 174 184 185 178 187 186 187 182 184 183 180 172 171 169 165 164 163 159 165 161 158 152 155 175 193 191 160 141 134 142 145 128 247 33 21 9 53 66 69 34 287 282 311 316 312 179 67 356 329 318
237 249 245 225 213 211 215 206 200 154 163 178 181 183 176 170 171 171 173 172 173 173 175 181 181 181 185 186 195 208 203 188 167 168 177 180 189 184 184 182 184 187 185 182 183 180 176 174 171 167 165 167 162 154 155 155 161 159 162 165 179 159 135 134 123 145 134 174 66 1 37 36 26 37 208 138 254 314 299 319 318 323 316 233 279
230 238 245 225 218 217 197 152 164 188 169 166 157 153 164 165 171 174 177 175 174 177 180 183 186 182 187 193 198 196 186 163 162 179 182 181 195 191 188 182 183 183 184 180 177 183 177 172 177 178 174 167 164 161 155 156 163 168 175 170 176 144 133 126 134 140 136 144 145 147 90 14 18 12 64 73 290 211 253 306 313 321 326 319 321
257 239 236 222 201 177 159 175 174 152 160 157 163 167 167 171 174 179 181 176 176 179 181 187 188 187 193 195 197 191 183 170 169 187 184 186 200 194 191 189 183 187 176 184 182 176 179 179 181 184 173 166 158 161 168 166 168 168 170 170 173 154 143 129 124 131 136 142 150 153 164 149 175 191 254 300 205 267 295 275 280 276 287 302 306
248 199 189 150 137 166 164 171 168 166 153 169 169 168 171 175 175 179 181 181 179 184 187 191 190 195 199 195 196 193 181 184 189 192 190 194 195 192 183 177 192 185 186 183 186 177 176 181 180 173 176 170 173 167 161 162 161 157 163 168 175 161 140 134 138 139 145 143 156 159 160 158 161 191 208 197 212 256 264 286 291 301 279 240 281
214 194 173 182 183 181 187 178 164 177 185 176 172 173 173 176 180 180 188 184 185 186 191 193 195 201 199 198 199 189 190 191 194 196 190 193 190 188 183 193 179 190 196 192 192 181 178 176 178 181 181 183 166 164 163 160 160 165 168 174 174 169 159 146 144 159 157 164 180 171 150 148 174 169 178 214 231 257 278 295 290 288 287 293 287
208 201 198 199 195 191 190 185 187 183 178 176 174 175 178 181 185 188 189 185 186 188 193 195 203 203 199 200 196 190 197 194 198 198 192 194 190 195 193 191 191 197 189 198 186 182 183 182 177 179 175 168 168 166 164 166 165 169 172 174 179 170 144 139 139 142 147 154 142 146 156 169 193 167 252 1 309 327 311 307 310 298 283 288 283
244 214 210 204 201 191 191 192 189 186 181 178 179 182 177 184 186 191 188 191 188 191 191 201 204 201 200 199 196 195 200 198 202 198 191 192 195 196 199 196 200 197 195 190 178 184 182 175 176 173 171 170 167 166 165 165 166 164 173 172 163 159 144 135 137 143 148 154 155 156 161 143 196 210 84 306 329 303 290 308 323 318 310 285 294
245 241 235 226 204 197 194 196 195 187 186 184 186 184 186 190 188 191 192 188 191 192 198 200 200 197 197 198 201 199 200 200 202 199 199 195 194 197 199 199 201 192 192 181 185 181 181 177 174 175 168 168 171 168 166 167 168 165 165 164 165 173 148 141 147 141 146 152 151 139 117 193 150 238 36 296 293 280 288 290 306 307 310 313 312
251 242 241 220 205 208 201 197 192 188 190 196 194 192 192 186 189 195 196 191 195 199 200 197 197 195 203 203 200 200 201 202 203 200 198 193 194 200 199 201 193 193 190 184 180 182 181 176 174 171 171 170 169 170 168 167 166 167 168 167 170 171 151 148 140 137 140 137 132 143 152 151 135 142 238 270 265 282 277 271 266 274 296 292 317
250 260 261 243 234 211 203 203 200 200 200 198 202 200 198 196 195 192 189 197 204 199 197 195 196 201 203 204 205 205 205 208 203 201 194 189 198 198 195 191 199 189 180 181 178 179 180 177 175 174 172 170 171 168 168 167 165 170 170 172 166 156 142 130 132 132 134 131 130 120 139 138 141 120 219 260 262 264 268 274 266 270 261 270 287
264 262 262 252 236 227 214 213 210 213 212 209 199 193 200 209 208 200 201 203 197 194 201 204 202 205 206 206 205 206 207 207 204 197 188 197 198 197 196 198 177 179 175 173 176 178 179 181 177 175 173 173 169 169 166 167 168 166 169 165 166 159 148 136 135 131 137 131 135 140 139 139 133 120 84 342 308 302 306 302 291 277 264 262 278
291 264 240 233 231 226 220 211 203 204 203 198 192 189 204 205 199 210 215 204 191 195 195 201 203 206 211 209 210 208 208 203 200 193 196 201 200 193 192 185 190 170 181 172 176 180 178 177 179 175 177 175 172 170 170 168 167 170 168 167 171 158 147 141 136 133 137 139 141 144 147 133 117 105 113 71 22 341 337 309 314 306 295 296 301
261 253 251 243 239 233 229 222 221 207 193 190 193 200 205 193 208 207 203 202 203 205 198 207 199 206 205 207 209 206 206 201 197 198 201 202 196 192 192 190 157 185 172 176 179 180 178 177 175 178 179 178 174 173 173 167 169 169 173 167 163 157 147 143 138 138 138 139 142 138 138 130 124 131 139 129 174 260 314 294 292 296 285 288 289
220 236 236 243 247 246 240 223 197 192 204 204 206 199 198 203 210 208 208 208 208 207 204 207 202 206 204 209 207 202 199 195 200 198 203 200 196 192 185 169 186 182 176 179 179 177 176 175 176 178 180 180 181 176 172 168 169 170 169 167 164 158 150 145 143 146 143 143 144 143 151 148 149 144 154 160 186 200 259 264 274 271 269 278 274
252 229 227 229 226 221 207 215 219 216 218 212 203 205 208 210 208 209 207 216 209 211 209 206 203 205 209 208 202 196 192 195 197 201 204 201 196 188 177 183 183 180 181 180 179 175 174 173 175 177 179 181 180 176 176 172 173 171 169 169 166 162 157 152 154 156 156 153 153 162 168 154 151 150 170 168 177 203 214 231 251 255 261 265 276
252 258 262 256 260 247 203 210 216 221 220 214 210 210 214 213 212 209 212 219 214 216 208 204 206 209 209 201 200 198 191 195 199 202 203 199 191 186 179 183 182 174 178 180 175 174 170 174 175 176 179 178 176 176 174 178 175 171 168 166 163 163 160 159 158 160 162 165 167 167 174 158 156 157 171 171 189 184 212 227 231 249 252 264 277
279 271 267 286 247 231 230 220 214 218 220 222 221 217 211 214 210 211 219 220 214 213 205 207 206 210 205 201 202 194 197 199 203 201 202 194 191 184 182 183 175 177 177 169 173 172 173 174 179 178 176 177 179 174 174 174 173 171 166 161 163 162 163 163 162 161 166 166 170 174 165 155 157 167 183 178 192 190 208 211 227 231 240 259 262
271 279 283 274 257 249 245 238 230 224 222 223 226 227 222 218 214 211 218 220 216 206 205 207 207 207 204 203 202 196 202 203 203 200 199 193 188 184 182 182 176 174 171 174 171 174 178 180 177 177 177 177 176 176 174 171 168 164 162 163 162 161 159 157 159 160 160 165 163 160 159 160 170 177 189 188 192 199 203 214 228 232 235 242 254
264 274 295 301 283 260 247 245 244 249 242 236 229 228 233 229 228 220 217 216 212 201 203 203 204 205 205 205 200 202 204 204 202 201 194 186 185 184 179 179 175 172 171 172 176 175 180 178 177 172 176 175 174 173 169 166 166 167 166 164 161 157 152 150 147 145 144 146 159 160 165 173 183 190 188 193 195 197 201 210 212 220 228 234 247
278 294 277 261 255 253 243 241 242 243 241 237 231 227 222 223 230 229 224 217 204 196 202 204 203 205 208 208 205 207 204 202 200 194 187 186 181 178 180 174 169 173 175 175 174 176 174 174 174 175 174 169 169 169 166 167 169 169 165 162 161 158 155 151 150 151 155 159 165 170 178 188 191 200 192 197 193 198 201 209 216 210 224 238 247
282 256 258 255 249 246 249 250 245 241 238 234 232 229 228 231 233 232 214 216 204 198 203 204 207 210 213 211 208 205 201 196 190 187 183 183 182 177 173 172 175 176 175 176 173 171 166 169 170 171 166 167 170 175 176 171 159 163 166 163 159 157 155 155 154 155 163 169 178 188 195 198 201 206 213 212 208 206 200 206 211 210 224 234 241
305 295 280 260 256 258 257 253 249 243 242 242 237 235 231 227 232 227 218 221 191 203 202 202 205 212 213 208 200 191 191 188 185 187 188 182 177 174 173 173 176 175 171 169 168 170 170 170 168 168 168 171 179 178 176 173 170 164 161 159 158 160 157 155 152 160 175 185 189 192 199 204 211 216 220 222 224 226 221 210 201 213 219 223 226
358 352 340 325 300 281 275 271 266 262 250 239 234 236 237 231 234 228 220 218 193 208 202 203 210 213 208 190 183 189 182 186 190 184 179 177 177 173 173 173 172 170 169 168 166 168 171 170 169 168 173 179 177 175 177 176 174 169 161 162 162 159 156 158 163 168 174 183 190 195 198 213 219 222 223 227 232 236 243 248 247 238 221 210 210
356 353 354 353 344 327 304 285 275 268 267 262 257 248 238 234 233 227 226 206 195 208 206 210 214 207 192 187 189 180 181 185 176 182 178 176 168 170 174 173 169 169 170 164 169 171 167 166 167 171 176 177 178 180 179 178 176 173 166 150 143 156 159 162 166 171 176 183 191 198 203 203 212 206 197 220 233 239 245 250 254 257 260 260 259
353 350 348 350 349 346 337 319 299 289 282 276 267 261 248 237 230 229 202 169 201 206 211 215 210 195 193 184 178 178 182 177 182 175 170 167 171 172 174 172 176 171 158 167 171 165 170 168 169 172 179 180 179 184 183 180 176 173 166 157 160 155 155 162 166 171 180 190 196 198 199 205 202 214 217 206 198 220 240 250 256 261 264 263 265
348 345 343 341 343 343 339 334 325 308 295 289 289 277 260 247 231 183 172 201 194 206 206 212 201 196 187 182 178 178 180 180 171 167 167 171 173 180 177 171 160 159 169 170 170 172 169 172 175 177 177 177 179 188 185 181 176 171 167 158 158 159 155 160 165 174 187 197 202 202 201 206 189 195 205 210 222 227 230 239 248 252 251 253 256
342 340 340 337 335 335 338 337 337 329 315 307 303 289 277 290 249 212 200 191 200 200 204 201 193 190 177 179 178 177 176 171 170 169 170 175 177 172 169 171 170 173 174 176 173 174 175 173 173 172 171 176 182 190 185 182 178 170 166 153 153 153 157 165 172 181 195 201 206 202 201 198 197 207 208 220 224 230 234 240 244 246 244 242 246
338 334 331 331 330 329 328 327 326 330 328 320 307 304 288 264 233 211 201 194 189 194 201 189 190 187 186 183 177 177 173 169 169 171 174 177 177 176 173 170 167 170 172 165 172 172 170 171 170 169 168 176 183 192 185 182 179 176 167 152 158 162 164 168 174 187 192 194 192 197 197 207 210 212 230 245 252 248 240 242 249 248 251 256 254
329 329 325 322 321 324 325 325 327 330 331 328 322 313 294 296 354 301 201 195 176 194 197 190 193 185 185 181 180 176 174 172 172 173 178 177 175 174 170 162 165 171 170 175 174 171 168 166 167 170 170 174 182 191 184 181 179 178 171 143 158 157 158 159 171 170 182 187 194 199 202 209 221 221 237 254 257 263 265 269 269 271 268 264 262
328 326 325 325 325 326 327 329 327 327 328 325 326 337 357 33 30 102 157 185 188 205 195 188 195 186 182 177 178 177 175 173 173 180 180 177 170 164 169 168 171 169 173 174 163 159 163 167 168 171 174 170 181 188 183 181 179 179 164 153 157 154 151 161 161 176 175 188 203 212 214 214 223 231 243 254 261 269 268 271 277 270 266 263 267
325 324 323 323 323 321 320 323 327 328 327 326 320 337 2 5 356 313 217 207 214 208 189 191 180 159 165 166 170 174 175 174 179 179 172 168 170 169 159 158 166 165 166 157 158 160 160 164 167 165 171 171 175 186 182 180 180 180 167 156 160 162 156 164 169 174 182 190 208 223 231 231 229 235 253 262 266 269 270 263 262 269 277 279 283
322 322 320 316 314 323 328 331 330 324 320 315 310 328 12 326 267 227 210 222 231 205 165 144 146 150 154 156 163 169 171 174 172 163 164 163 152 148 158 164 163 162 157 159 161 162 164 166 160 162 170 166 175 183 181 180 180 181 167 159 159 168 174 169 169 175 188 198 200 215 227 227 238 254 262 263 265 267 265 267 277 280 280 282 293
315 318 321 321 320 321 318 317 317 317 317 315 315 312 301 272 202 234 258 251 195 148 141 141 135 142 151 160 160 171 167 166 164 161 154 151 159 161 158 162 158 156 151 157 161 161 159 161 162 165 159 172 180 174 183 181 181 183 174 166 169 176 169 167 165 174 189 193 204 192 153 221 245 251 255 260 264 268 277 284 282 283 282 282 285
306 307 315 318 319 320 321 321 322 323 320 317 319 312 305 319 337 291 289 270 99 122 128 128 139 143 146 150 155 149 153 153 152 150 153 158 157 155 161 158 158 158 161 162 161 161 160 159 163 165 167 172 186 185 175 182 183 184 181 171 170 174 166 160 172 182 189 191 180 159 136 217 241 249 255 260 268 280 286 288 291 285 284 289 296
322 321 322 324 321 320 320 319 320 322 321 315 319 307 306 321 303 310 1 49 56 79 106 126 136 143 148 150 150 151 153 152 155 159 156 155 153 154 158 160 158 160 162 163 166 166 163 163 166 173 170 173 179 183 182 181 184 184 185 177 173 170 177 170 179 183 176 167 146 141 160 228 238 246 255 269 282 288 296 290 285 286 291 298 309
311 314 317 323 321 318 317 315 315 316 315 314 316 304 300 309 290 312 90 89 105 104 118 126 139 146 143 149 152 153 152 154 156 156 157 154 160 161 162 167 165 164 165 166 174 172 172 172 161 166 165 160 173 173 184 182 184 184 187 181 178 178 181 171 170 168 162 155 143 151 185 219 235 254 274 287 290 292 289 284 286 294 302 311 328
314 318 321 321 320 317 315 312 312 316 315 312 312 301 301 297 285 228 178 135 127 134 133 145 149 150 152 150 149 157 160 160 164 161 160 162 163 165 167 174 170 174 174 175 177 178 182 180 175 176 173 172 174 175 177 183 182 184 186 185 180 180 182 172 164 156 139 140 169 199 209 217 233 315 299 303 312 297 286 283 294 302 310 332 309
311 315 321 322 318 316 316 316 315 318 319 314 304 291 290 289 327 300 216 186 150 143 159 164 157 158 161 153 156 161 166 170 169 173 172 170 168 172 174 175 180 183 181 181 178 182 184 180 184 175 173 172 172 172 174 175 182 182 184 187 184 182 178 167 142 150 158 173 173 131 110 84 70 47 43 20 220 258 279 296 307 315 316 294 277
312 312 319 320 321 319 316 314 310 311 315 314 309 292 268 282 292 256 220 197 182 173 175 174 173 167 162 166 169 170 169 177 181 179 176 172 175 177 176 178 185 185 188 189 184 182 184 183 182 179 168 167 171 174 172 172 173 175 177 182 180 177 174 165 147 142 138 120 113 96 87 93 87 71 9 294 294 302 312 304 290 282 272 266 272
304 310 315 315 314 313 310 311 307 307 314 312 306 303 299 290 280 243 212 199 202 195 192 193 185 176 177 181 183 176 177 165 185 186 184 184 186 185 185 188 187 187 184 189 185 188 189 186 181 173 168 164 175 177 179 175 173 171 173 173 165 159 156 138 139 132 125 118 100 91 80 70 65 39 15 349 300 278 272 271 272 264 266 267 271
305 311 314 309 308 306 304 304 300 302 307 302 298 301 308 297 284 256 209 211 220 210 205 194 186 179 187 188 187 183 189 182 189 194 204 198 189 191 198 204 207 193 190 185 186 192 191 185 176 172 169 174 175 184 189 178 174 174 170 162 159 157 146 143 139 131 113 100 96 92 90 74 77 94 220 246 262 272 270 261 261 267 264 266 275
304 311 308 304 301 301 302 298 293 297 298 297 304 309 312 314 302 261 226 234 233 219 210 207 195 193 190 182 191 190 189 189 193 194 194 203 214 215 218 213 211 213 217 218 203 195 186 172 174 183 177 174 182 183 175 177 175 173 170 163 155 148 147 147 159 147 129 113 110 119 124 127 128 163 203 235 239 244 254 265 264 275 282 284 272
307 310 307 307 307 305 302 295 291 294 294 299 299 295 297 298 303 277 238 237 232 226 223 217 201 204 194 189 188 188 190 192 193 190 190 193 195 212 221 224 223 214 216 217 205 201 186 182 175 166 184 218 175 164 167 167 170 171 169 164 161 160 158 161 146 122 99 123 133 133 140 143 185 183 209 223 238 240 261 268 280 282 277 276 279